Temp
31 30 29 31 32 34 35 36 37 38 39 38 37 31 28 26 26 23 29 33 33 31 32 32 32 31 30 29 28 27 27 26 25 25 25 26 26 27 27 26 26 26 26 25
31 29 32 33 34 34 34 34 36 38 39 39 38 31 27 26 27 23 25 33 34 33 31 32 32 31 30 29 27 27 27 25 25 25 25 26 27 27 28 28 27 26 26 25
30 32 33 33 33 34 34 34 35 36 38 39 38 31 26 26 29 28 30 35 35 34 31 32 32 31 30 29 27 27 26 25 25 26 26 26 27 28 28 27 26 26 26 26
31 33 33 33 33 34 33 35 35 35 36 35 38 35 29 26 25 31 31 28 35 35 33 32 32 32 31 29 28 26 26 25 25 26 26 26 27 28 28 27 27 27 26 26
31 32 32 32 33 34 33 35 35 35 34 35 36 36 37 31 31 30 26 28 35 35 34 33 33 32 31 30 28 26 26 25 25 26 26 26 27 28 28 28 28 27 27 27
31 33 33 33 34 34 34 34 34 34 34 33 35 36 36 32 31 29 31 31 33 36 35 35 33 32 31 30 29 27 25 25 25 25 25 26 26 28 28 29 27 26 27 27
30 31 33 34 32 33 33 32 30 30 31 32 35 35 36 38 34 31 31 34 36 36 36 35 34 33 32 31 30 28 25 25 24 24 25 25 26 27 27 29 28 27 27 26
29 29 32 33 32 32 32 32 31 29 31 33 35 34 36 38 39 37 36 38 37 37 35 35 34 33 32 31 30 29 26 24 24 24 25 25 26 26 26 27 28 28 28 29
27 29 33 33 33 33 32 31 33 32 34 33 35 36 37 39 39 37 32 31 34 27 36 36 35 34 32 31 30 29 27 25 24 24 24 25 25 26 27 27 28 28 29 29
26 25 30 31 33 33 32 34 31 33 30 31 34 36 36 37 38 38 36 28 26 25 29 37 36 35 33 32 31 30 28 25 25 24 24 24 25 25 27 27 27 27 28 29
26 25 26 29 29 30 31 31 32 32 33 31 32 35 39 37 38 39 36 28 24 24 25 33 37 36 34 33 32 31 29 26 25 25 25 24 24 25 26 26 27 27 27 28
24 24 24 27 30 32 31 30 31 30 29 32 33 35 38 38 39 39 39 35 33 29 22 22 33 36 35 34 33 31 30 29 26 25 25 25 25 24 25 26 26 26 27 27
21 22 23 24 27 30 29 30 30 31 32 30 32 34 38 38 39 39 39 39 37 36 27 26 32 37 35 34 33 32 31 30 28 26 26 25 25 25 25 25 26 26 26 26
21 21 21 22 25 25 26 29 30 30 30 31 31 33 35 35 30 35 34 34 35 35 36 36 35 37 36 35 33 33 32 31 30 28 27 26 25 25 25 25 25 26 26 25
20 19 20 22 23 23 24 26 28 28 29 29 30 32 25 24 27 26 34 34 33 33 34 32 34 31 33 34 33 33 33 32 31 30 28 27 26 26 26 26 26 25 26 26
20 18 19 18 21 22 23 24 26 27 27 28 29 28 24 24 26 29 27 31 31 31 31 30 30 30 28 28 33 33 33 32 32 30 29 28 27 26 26 26 26 26 26 26
19 14 17 17 20 21 21 23 25 26 27 27 26 28 30 27 27 22 25 26 28 28 28 28 28 29 29 29 25 33 32 32 32 31 30 29 28 27 26 26 26 26 26 26
19 19 15 16 17 15 21 25 26 26 26 28 28 28 29 26 24 25 26 26 26 25 25 26 27 27 27 27 29 29 33 32 32 31 30 29 28 27 27 26 26 26 26 26
21 19 16 14 17 16 19 20 20 20 25 24 22 23 21 23 25 21 22 25 25 24 24 24 24 24 25 26 27 29 29 31 31 31 30 29 29 28 27 26 26 26 26 26
18 19 18 18 15 16 17 20 20 21 21 20 19 18 18 21 24 19 20 22 24 23 22 21 22 24 24 24 24 27 29 30 31 30 31 30 29 28 27 26 26 26 26 26
15 12 13 17 17 19 17 17 20 17 18 19 19 18 17 17 18 19 20 21 21 22 21 20 21 21 21 20 21 22 26 29 30 31 30 30 29 28 28 27 26 26 26 26
13 13 13 15 15 16 18 19 17 17 18 18 18 18 17 17 17 18 19 20 21 21 20 19 19 20 20 19 18 19 22 21 28 31 30 30 29 29 28 27 26 26 26 26
12 10 10 12 13 16 15 13 12 17 17 18 16 16 16 16 16 17 17 19 19 20 19 19 19 19 18 17 16 17 17 18 21 30 30 29 29 29 29 27 27 26 26 26
13 11 10 11 15 13 12 13 11 11 12 13 14 15 15 16 15 16 17 18 18 18 18 18 18 19 18 17 15 15 15 17 20 29 29 29 28 28 28 28 27 26 26 26
11 10 10 11 12 8 13 9 10 10 10 11 13 14 15 15 15 15 16 16 17 17 17 17 18 18 17 16 15 14 14 15 17 25 29 29 28 28 27 27 27 27 27 27
9 8 8 9 8 7 7 8 8 8 9 10 10 11 12 14 15 15 15 15 16 16 16 16 17 17 16 16 14 14 15 14 15 21 22 27 28 28 27 27 27 28 27 28
Height
736 749 753 741 734 727 723 719 717 705 690 701 713 739 745 752 760 765 757 743 751 759 762 767 774 781 789 798 803 810 815 818 825 830 834 836 838 841 842 845 847 849 849 851
738 749 733 724 721 726 725 728 719 698 686 694 701 731 739 742 747 757 761 736 742 750 761 765 771 777 785 793 800 808 813 817 822 828 832 834 837 839 841 844 846 847 850 851
741 727 721 726 725 728 726 730 722 718 696 686 695 735 754 741 734 748 737 719 730 740 754 760 767 773 780 788 796 803 810 815 820 826 830 832 835 838 840 842 844 847 849 851
729 719 717 725 729 723 737 712 717 718 720 732 694 738 742 745 754 733 733 738 722 733 745 755 761 767 774 783 793 800 807 812 818 823 827 829 831 834 836 840 843 845 848 850
732 724 725 725 723 718 728 709 714 722 727 722 711 725 707 722 733 739 739 741 720 722 734 744 752 760 769 778 786 795 804 809 815 819 824 827 829 831 833 836 839 843 846 849
723 705 710 714 710 713 711 721 721 719 727 748 723 718 714 728 728 733 716 726 718 712 724 732 743 754 762 772 780 789 796 804 810 816 819 824 826 828 831 834 836 840 844 847
727 724 710 705 723 714 720 732 759 762 754 752 716 723 707 679 689 699 706 705 699 705 714 724 733 743 753 761 770 779 788 796 803 809 815 820 823 825 828 831 834 837 840 843
743 742 717 708 714 723 723 729 750 772 756 739 710 725 709 672 665 671 677 673 685 694 706 715 723 733 744 753 762 771 779 788 797 804 809 815 820 822 826 829 831 834 836 838
752 739 703 702 701 709 721 731 714 731 716 727 708 695 684 669 670 678 688 693 695 716 694 706 714 724 735 745 753 761 771 780 789 797 804 809 814 818 822 825 828 831 832 835
755 764 724 712 698 698 713 703 734 725 754 750 716 699 697 684 676 671 678 698 704 716 711 692 705 714 725 736 746 757 765 773 781 788 796 802 806 812 817 821 824 828 830 832
758 761 748 727 727 724 721 722 715 715 721 742 741 709 653 662 662 666 674 693 702 723 705 696 697 704 713 725 737 747 758 766 775 784 791 797 802 808 812 816 820 823 827 829
766 768 768 747 718 708 712 720 717 737 743 717 715 701 652 649 646 651 659 671 672 691 728 702 696 688 701 712 725 736 747 757 766 776 783 790 796 801 805 810 814 819 823 826
786 777 776 764 743 720 724 719 718 717 716 730 727 708 657 655 647 645 654 657 660 667 700 691 685 677 693 705 715 726 738 749 760 769 777 784 789 793 798 802 808 812 816 820
792 792 791 781 755 754 746 726 720 719 727 721 716 702 683 675 691 665 668 670 672 672 671 672 675 674 682 695 706 718 729 740 751 760 768 775 780 785 791 797 802 806 810 814
792 798 789 776 768 767 755 742 730 728 723 728 717 703 732 726 716 701 680 677 679 683 682 683 681 692 689 694 699 709 720 731 740 749 758 763 771 779 786 790 795 800 804 808
791 800 794 791 774 773 763 751 737 733 729 726 719 717 729 727 722 713 706 694 693 694 695 695 696 697 695 702 690 702 711 722 732 739 746 755 764 772 778 784 789 794 798 801
790 816 803 801 780 772 771 753 741 737 728 731 740 723 712 727 717 735 725 720 714 711 711 709 706 705 709 708 706 703 707 716 724 732 740 747 754 762 768 775 781 785 789 794
786 789 812 802 796 804 761 736 734 735 729 723 720 721 712 730 739 733 728 725 726 728 727 722 715 712 709 716 698 712 707 709 718 725 731 739 746 752 760 767 772 777 782 786
776 786 798 812 796 794 766 760 763 754 736 735 741 741 745 737 730 750 747 734 734 736 734 733 729 724 717 710 711 708 705 709 711 718 724 731 738 745 752 759 764 770 776 780
787 779 784 785 798 794 776 765 761 758 757 751 759 764 763 756 752 765 757 748 743 743 743 743 738 733 728 723 717 710 708 707 708 710 717 726 732 738 744 749 756 762 768 771
799 805 804 785 780 770 772 775 768 783 773 763 763 766 770 770 769 765 761 758 752 747 748 748 743 738 735 732 728 720 710 705 706 707 713 717 724 730 736 744 750 755 759 764
811 809 801 793 792 791 774 770 779 775 772 769 770 768 768 772 772 766 762 757 755 749 749 749 744 739 735 734 730 725 718 705 702 702 704 711 716 723 730 736 742 748 752 757
816 827 828 816 800 784 792 795 794 776 773 772 776 775 770 765 771 771 766 757 751 749 751 749 743 737 734 732 729 723 707 699 696 696 697 704 710 716 723 728 735 740 745 749
813 823 826 818 794 799 802 796 800 797 791 788 783 778 774 767 764 763 760 758 755 751 750 747 742 738 737 734 729 723 714 703 698 692 692 698 703 709 716 721 727 732 736 740
822 826 821 815 803 813 794 805 803 800 796 790 784 779 774 771 764 763 757 755 753 751 747 746 743 743 741 738 733 728 721 712 706 697 692 696 700 705 711 715 718 722 726 730
826 829 828 819 823 823 816 808 803 797 792 789 785 779 775 769 764 765 760 759 754 754 750 748 745 743 741 739 735 730 725 720 711 700 696 697 698 702 706 709 713 715 719 722
Wind_Speed
17 11 16 19 20 20 20 20 17 17 18 19 16 16 15 9 3 11 15 20 25 23 20 27 28 29 29 26 29 23 24 31 25 21 16 13 13 12 11 17 15 10 7 4
14 19 18 18 20 21 21 21 19 17 18 17 18 19 20 12 10 28 29 21 21 25 23 22 26 29 30 30 30 27 25 31 28 21 19 16 15 13 12 13 13 9 7 7
19 15 21 21 18 19 18 19 18 17 17 16 16 15 15 9 3 13 25 24 22 23 26 22 24 28 29 31 31 32 27 28 27 20 21 17 17 16 15 16 16 12 11 8
19 21 18 20 21 18 19 16 19 18 16 13 17 15 26 20 14 17 10 10 24 22 25 24 25 28 30 31 31 32 29 28 30 24 22 19 16 13 17 12 18 18 14 13
17 21 21 19 17 21 18 16 14 16 18 18 22 14 9 26 25 13 15 23 21 25 26 27 25 31 32 32 33 32 32 28 29 31 23 24 19 19 17 17 19 21 17 12
16 17 20 22 18 14 16 17 18 17 15 16 20 18 17 17 19 14 22 26 21 26 24 25 33 34 31 33 34 34 36 32 31 35 26 26 26 19 15 16 23 20 19 16
16 19 20 17 19 22 18 15 12 14 14 16 19 19 14 15 28 26 25 25 25 23 24 22 24 27 33 36 37 37 39 36 36 34 33 24 31 28 18 22 20 21 20 23
14 11 21 17 20 20 18 19 14 18 13 16 20 19 18 23 21 29 31 24 28 26 22 24 24 28 34 34 38 37 40 38 38 35 38 31 29 30 25 16 20 15 19 21
10 14 18 13 24 20 20 21 21 23 20 17 17 17 23 21 18 8 9 6 10 16 26 26 24 31 35 36 37 40 40 40 39 38 34 36 30 28 25 20 22 23 20 11
10 17 19 15 16 25 21 18 20 15 21 22 19 19 15 19 19 19 16 7 5 16 31 24 24 30 35 38 36 37 37 41 41 41 38 36 39 36 28 30 23 22 17 18
13 12 20 19 11 15 13 19 21 14 17 16 15 15 15 23 21 18 21 21 21 24 20 9 23 31 35 37 37 37 37 39 39 38 38 36 35 35 38 26 31 28 25 19
16 8 14 18 20 14 14 18 19 12 15 14 16 16 17 13 22 19 13 21 22 19 17 33 21 30 34 35 38 38 39 37 40 39 37 38 36 37 36 38 29 31 25 23
12 7 11 15 16 19 15 17 20 20 19 20 15 18 6 10 6 17 16 11 5 23 33 33 30 20 25 33 34 36 38 39 36 37 36 36 36 36 37 38 35 32 35 29
8 12 17 16 14 18 15 19 22 20 16 18 19 19 2 6 22 12 15 15 13 12 10 8 5 16 23 32 33 33 35 37 37 38 37 37 38 38 37 35 38 36 32 32
8 15 18 22 22 23 21 21 18 18 22 20 18 18 14 20 23 16 10 11 12 10 13 14 17 12 9 26 31 32 32 35 36 37 38 39 39 38 36 35 35 36 36 34
3 13 13 20 22 19 24 23 21 19 15 19 19 18 18 3 12 18 16 16 15 14 15 17 18 17 13 24 31 32 32 34 34 36 38 38 36 37 37 36 34 35 36 34
9 8 8 12 17 20 20 23 19 19 18 16 18 16 8 10 7 11 17 9 15 17 17 16 15 14 18 16 37 26 29 29 32 30 34 36 37 38 39 37 36 36 37 36
15 12 5 7 13 10 14 20 17 24 23 20 20 18 20 7 8 12 11 12 13 15 16 16 14 20 25 26 27 25 17 31 27 31 29 34 36 37 37 37 37 37 35 35
12 12 5 5 11 13 28 7 9 16 10 14 15 18 20 16 2 16 18 16 15 14 15 18 20 22 26 27 27 23 22 14 34 31 31 33 36 34 35 36 37 36 34 34
13 13 12 12 11 5 14 6 7 12 10 14 14 14 15 12 11 7 16 17 15 15 18 20 21 18 18 24 32 27 21 22 24 34 31 29 33 34 36 37 36 35 35 35
8 4 11 14 14 13 5 2 13 10 4 13 14 12 11 10 11 15 14 14 22 14 18 20 20 16 17 22 26 28 24 21 22 28 32 32 32 36 35 33 33 33 34 33
4 6 4 6 9 12 14 5 6 8 10 12 13 14 13 11 11 14 16 15 13 13 16 19 19 18 18 22 23 26 22 27 31 23 32 33 34 32 32 33 32 33 32 32
1 1 2 3 7 22 19 15 19 14 12 13 11 14 17 18 13 12 12 14 15 16 14 17 18 19 20 24 25 26 33 36 33 23 29 33 31 31 31 33 32 30 31 29
4 5 3 9 8 20 19 10 11 13 13 17 15 17 16 18 16 17 13 11 12 18 15 16 17 17 19 22 26 28 33 36 32 26 24 26 28 29 31 28 32 30 29 29
2 6 5 10 10 18 11 19 16 15 16 17 16 17 17 17 15 15 15 12 12 15 15 15 15 14 16 19 21 26 30 32 29 12 17 20 22 28 26 31 28 31 31 31
4 3 2 4 13 10 13 17 18 17 15 15 16 18 19 17 14 15 14 16 14 13 14 12 14 13 15 17 19 25 27 30 28 20 14 11 19 23 27 26 25 32 31 31
Wind_Direction
208 210 219 228 231 242 266 278 243 237 218 235 203 134 147 131 221 286 257 178 171 178 187 175 179 171 166 174 165 177 178 163 168 169 188 210 167 190 198 190 164 146 143 199
196 227 233 233 235 235 254 267 276 278 245 229 205 157 160 150 184 215 243 172 187 173 176 187 188 175 173 175 169 178 179 166 170 177 188 196 184 203 191 168 156 145 168 179
231 230 218 241 239 244 236 252 263 274 288 234 236 151 164 212 270 237 234 170 184 174 173 181 187 182 178 174 172 176 180 170 173 185 191 201 205 198 207 167 162 173 183 199
237 241 260 215 241 242 247 240 259 273 272 263 222 250 178 163 208 210 198 285 176 186 171 181 185 187 184 176 175 175 181 178 182 189 191 200 204 199 197 189 188 176 187 196
247 238 241 245 231 242 252 255 252 249 264 272 261 228 239 168 182 171 149 252 203 180 181 183 189 191 185 177 176 177 181 182 187 194 193 197 207 213 206 194 185 175 181 198
276 272 243 244 244 251 257 252 266 262 239 250 252 258 223 170 188 194 188 209 225 173 190 187 184 184 189 184 180 178 181 187 188 198 199 195 207 209 200 203 157 169 182 193
234 243 261 246 244 241 235 238 236 237 237 238 236 249 254 215 184 183 197 214 184 176 180 192 182 183 187 186 183 181 181 185 189 194 206 199 203 216 216 200 178 186 183 191
290 270 212 240 239 238 221 229 229 228 233 238 228 239 230 260 269 186 193 189 180 183 178 185 183 185 184 189 185 185 181 184 189 193 201 202 202 216 222 206 202 199 206 207
321 265 293 286 224 224 240 220 245 256 250 246 241 217 242 232 233 162 106 145 169 303 175 184 182 184 182 189 189 188 182 185 188 195 198 202 200 205 212 208 207 211 226 242
306 309 299 280 291 227 229 249 220 243 249 260 259 253 205 218 232 197 173 123 101 267 286 183 181 181 184 188 191 190 187 187 190 192 196 200 201 202 203 215 215 213 217 223
319 293 287 300 271 260 226 240 253 264 235 254 256 263 257 195 206 224 164 159 158 220 278 244 183 182 183 183 188 190 192 187 190 193 198 200 203 205 206 209 213 213 217 222
315 305 289 273 275 277 280 283 245 246 255 249 256 258 23 9 193 205 217 174 169 145 199 251 241 177 180 181 185 190 191 191 192 195 197 202 203 204 207 208 208 207 207 212
348 311 297 261 274 267 253 252 257 264 245 263 241 251 288 344 288 197 194 243 200 184 181 200 221 175 175 182 183 188 191 195 192 195 200 202 205 205 207 208 206 206 211 212
322 280 275 283 290 329 308 251 257 258 247 242 249 264 69 19 15 80 64 57 46 29 39 31 50 176 175 178 182 186 189 192 196 194 199 204 206 207 206 207 208 208 206 206
290 271 270 274 289 310 289 287 286 269 261 266 271 249 28 10 355 16 24 68 66 40 28 25 27 23 157 207 178 183 188 193 194 197 198 204 207 207 208 208 208 208 211 211
312 278 278 286 277 273 279 268 261 270 277 281 280 295 98 313 319 332 14 26 39 39 29 17 12 4 22 320 172 183 188 191 198 197 198 201 203 205 209 209 210 207 209 210
239 197 287 284 282 289 264 253 259 263 254 254 262 273 272 38 264 6 356 5 15 16 15 6 1 345 344 7 309 180 189 193 196 202 199 198 200 202 205 208 209 210 209 210
264 253 244 271 296 265 257 265 282 247 261 255 265 280 282 118 36 13 345 15 24 15 358 351 350 340 330 335 335 335 199 194 205 201 200 199 198 200 203 205 209 212 212 211
258 271 209 250 266 277 284 24 357 347 259 23 10 14 25 14 15 51 5 359 14 4 357 349 342 332 324 319 310 313 310 265 200 211 206 199 198 200 200 204 209 211 213 215
329 302 263 240 245 275 32 347 347 321 256 24 17 20 6 342 210 26 354 340 359 5 356 345 331 332 335 336 329 317 296 280 223 206 208 206 198 200 200 204 206 209 211 214
322 357 258 264 269 250 186 50 332 260 355 357 355 359 356 338 338 324 325 326 330 10 352 343 334 339 352 341 336 323 304 287 267 214 208 205 203 201 203 203 205 207 209 213
307 329 330 290 249 266 14 250 261 322 322 326 335 336 328 322 322 318 321 310 325 345 352 338 339 336 348 351 347 330 331 338 279 251 202 208 206 201 203 202 206 208 209 213
317 87 291 285 318 309 359 338 322 328 312 320 326 318 320 312 319 312 311 311 320 327 345 336 339 341 346 350 350 336 339 339 331 245 201 202 204 205 205 203 207 208 209 211
49 39 282 329 338 334 322 304 340 338 339 321 311 302 301 299 304 307 308 322 316 319 331 331 337 343 342 348 352 344 339 340 332 230 191 196 197 201 204 210 206 208 208 209
14 326 318 284 312 330 335 336 330 316 311 297 301 298 295 292 287 291 297 307 301 311 319 327 329 334 338 342 349 351 347 345 341 316 195 195 199 202 203 209 208 207 211 211
180 207 248 295 318 296 295 312 317 311 315 308 299 293 288 281 285 273 278 283 295 299 302 314 317 330 335 342 346 354 355 348 350 358 2 242 213 208 208 209 220 207 212 217